Juneau, WI

3:53 PM CST on November 16, 2019 (GMT -0600)
Dodge County

Weather History for KUNU - October, 2019

Change the Weather History Date:

Wednesday, October 16, 2019

  Actual Average Record
Temperature  
Mean Temperature 44 °F -  
Max Temperature 50 °F 57 °F 75 °F (1998)
Min Temperature 38 °F 39 °F 23 °F (1992)
Degree Days  
Heating Degree Days 21    
Moisture  
Dew Point 35 °F    
Average Humidity 74    
Maximum Humidity 94    
Minimum Humidity 53    
Precipitation  
Precipitation 0.00 in - - ()
Sea Level Pressure  
Sea Level Pressure 29.92 in    
Wind  
Wind Speed 9 mph ()    
Max Wind Speed 16 mph    
Max Gust Speed 29 mph    
Visibility 10.0 miles    
Events Rain    
Averages and records for this station are not official NWS values.
T = Trace of Precipitation, MM = Missing Value Source: Averaged Metar Reports

Daily Weather History Graph

Daily Weather History Graph

Search for Another Location

Airport or City:

Astronomy

Oct. 16, 2019 Rise Set
Actual Time 7:09 AM CDT 6:10 PM CDT
Civil Twilight 6:40 AM CDT 6:39 PM CDT
Nautical Twilight 6:07 AM CDT 7:12 PM CDT
Astronomical Twilight 5:34 AM CDT 7:45 PM CDT
Moon 7:59 PM CDT 9:43 AM CDT
Length of Visible Light 11h 58m
Length of Day
11h 00m
Waning Gibbous, 92% of the Moon is Illuminated
Oct 16
Waning Gibbous
Oct 21
Last Quarter
Oct 27
New
Nov 4
First Quarter
Nov 12
Full

Hourly Weather History & Observations

Time (CDT) Temp. Windchill Dew Point Humidity Pressure Visibility Wind Dir Wind Speed Gust Speed Precip Events Conditions
12:15 AM 41.0 °F 35.8 °F 34.7 °F 78% 29.77 in 10.0 mi West 8.1 mph 21.9 mph N/A   Overcast
12:35 AM 40.3 °F 33.4 °F 34.0 °F 78% 29.77 in 10.0 mi WNW 11.5 mph 25.3 mph N/A   Overcast
12:55 AM 39.7 °F 31.9 °F 34.7 °F 82% 29.78 in 10.0 mi WNW 13.8 mph 20.7 mph N/A   Overcast
1:15 AM 39.6 °F 31.3 °F 35.1 °F 84% 29.78 in 10.0 mi NW 15.0 mph 27.6 mph N/A   Overcast
1:35 AM 39.6 °F 32.5 °F 35.1 °F 84% 29.79 in 10.0 mi WNW 11.5 mph 19.6 mph N/A   Overcast
1:55 AM 38.8 °F 31.6 °F 35.8 °F 89% 29.80 in 10.0 mi NW 11.5 mph 25.3 mph N/A   Light Drizzle
2:15 AM 38.7 °F 30.1 °F 36.5 °F 92% 29.80 in 10.0 mi NW 15.0 mph 21.9 mph N/A Rain Rain
2:35 AM 38.7 °F 32.4 °F 37.0 °F 94% 29.81 in 10.0 mi NW 9.2 mph 17.3 mph N/A   Drizzle
2:55 AM 39.0 °F 31.8 °F 37.4 °F 94% 29.81 in 7.0 mi NW 11.5 mph 19.6 mph N/A   Drizzle
3:35 AM 40.1 °F 32.7 °F 37.4 °F 90% 29.81 in 10.0 mi WNW 12.7 mph 21.9 mph N/A   Overcast
3:55 AM 40.5 °F 33.2 °F 37.4 °F 89% 29.81 in 10.0 mi WNW 12.7 mph 19.6 mph N/A   Overcast
4:15 AM 41.0 °F 33.9 °F 37.0 °F 86% 29.82 in 10.0 mi WNW 12.7 mph 24.2 mph N/A   Overcast
4:35 AM 41.2 °F 33.7 °F 37.0 °F 85% 29.83 in 10.0 mi WNW 13.8 mph 24.2 mph N/A   Overcast
4:55 AM 41.2 °F 33.7 °F 36.9 °F 85% 29.83 in 10.0 mi WNW 13.8 mph 20.7 mph N/A   Overcast
5:35 AM 41.5 °F 33.8 °F 36.7 °F 83% 29.84 in 10.0 mi NW 15.0 mph 20.7 mph N/A   Overcast
5:55 AM 41.9 °F 34.6 °F 36.5 °F 81% 29.85 in 10.0 mi NW 13.8 mph 20.7 mph N/A   Overcast
6:15 AM 41.9 °F 35.4 °F 36.5 °F 81% 29.85 in 10.0 mi NW 11.5 mph 28.8 mph N/A   Overcast
6:35 AM 41.9 °F 34.6 °F 36.5 °F 81% 29.86 in 10.0 mi NW 13.8 mph 20.7 mph N/A   Overcast
6:55 AM 42.3 °F 35.9 °F 36.5 °F 80% 29.87 in 10.0 mi NW 11.5 mph 25.3 mph N/A   Overcast
7:15 AM 42.3 °F 36.8 °F 36.7 °F 81% 29.87 in 10.0 mi WNW 9.2 mph 18.4 mph N/A   Overcast
7:35 AM 42.4 °F 37.5 °F 36.9 °F 81% 29.88 in 10.0 mi WNW 8.1 mph 18.4 mph N/A   Overcast
7:55 AM 42.8 °F 36.2 °F 37.0 °F 80% 29.88 in 10.0 mi WNW 12.7 mph 18.4 mph N/A   Overcast
8:15 AM 42.8 °F 36.6 °F 37.0 °F 80% 29.89 in 10.0 mi WNW 11.5 mph 20.7 mph N/A   Overcast
8:35 AM 42.8 °F 36.6 °F 37.2 °F 81% 29.90 in 10.0 mi WNW 11.5 mph 24.2 mph N/A   Overcast
9:15 AM 43.7 °F 38.1 °F 36.9 °F 77% 29.91 in 10.0 mi WNW 10.4 mph 21.9 mph N/A   Overcast
9:35 AM 44.4 °F 38.2 °F 37.0 °F 75% 29.91 in 10.0 mi NW 12.7 mph 21.9 mph N/A   Overcast
9:55 AM 45.0 °F 40.1 °F 36.5 °F 72% 29.91 in 10.0 mi NW 9.2 mph 25.3 mph N/A   Overcast
10:15 AM 45.0 °F 37.9 °F 36.1 °F 71% 29.92 in 10.0 mi NW 16.1 mph 24.2 mph N/A   Overcast
10:35 AM 46.4 °F 40.4 °F 36.7 °F 69% 29.92 in 10.0 mi NW 13.8 mph 20.7 mph N/A   Overcast
10:55 AM 46.9 °F - 36.3 °F 67% 29.92 in 10.0 mi NW 15.0 mph 20.7 mph N/A   Overcast
12:15 PM 47.1 °F - 35.8 °F 65% 29.95 in 10.0 mi NW 15.0 mph 20.7 mph N/A   Overcast
12:35 PM 47.3 °F - 36.0 °F 65% 29.95 in 10.0 mi NW 10.4 mph 18.4 mph N/A   Overcast
12:55 PM 47.3 °F - 35.8 °F 64% 29.95 in 10.0 mi NW 11.5 mph 19.6 mph N/A   Overcast
1:15 PM 47.3 °F - 35.8 °F 64% 29.95 in 10.0 mi NW 6.9 mph 18.4 mph N/A   Overcast
1:35 PM 48.4 °F - 35.6 °F 61% 29.95 in 10.0 mi WNW 9.2 mph 19.6 mph N/A   Overcast
1:55 PM 48.6 °F - 36.0 °F 62% 29.95 in 10.0 mi NW 9.2 mph 16.1 mph N/A   Overcast
2:15 PM 49.3 °F - 36.0 °F 60% 29.95 in 10.0 mi WNW 9.2 mph 20.7 mph N/A   Overcast
2:55 PM 48.6 °F - 35.2 °F 60% 29.96 in 10.0 mi WNW 10.4 mph 19.6 mph N/A   Overcast
3:15 PM 49.3 °F - 34.7 °F 57% 29.95 in 10.0 mi WNW 12.7 mph 21.9 mph N/A   Overcast
3:35 PM 49.6 °F - 33.8 °F 54% 29.96 in 10.0 mi NW 8.1 mph 19.6 mph N/A   Overcast
3:55 PM 50.7 °F - 34.0 °F 53% 29.96 in 10.0 mi NW 10.4 mph 17.3 mph N/A   Overcast
4:15 PM 48.7 °F - 34.5 °F 58% 29.97 in 10.0 mi NW 9.2 mph 16.1 mph N/A   Overcast
4:35 PM 49.1 °F - 35.1 °F 58% 29.97 in 10.0 mi WNW 5.8 mph - N/A   Overcast
4:55 PM 48.6 °F - 33.8 °F 57% 29.97 in 10.0 mi NW 5.8 mph - N/A   Overcast
5:15 PM 48.4 °F - 33.8 °F 57% 29.97 in 10.0 mi WNW 5.8 mph - N/A   Overcast
5:35 PM 47.3 °F - 34.0 °F 60% 29.98 in 10.0 mi Calm Calm - N/A   Scattered Clouds
5:55 PM 47.3 °F - 34.3 °F 61% 29.98 in 10.0 mi Calm Calm - N/A   Mostly Cloudy
6:15 PM 46.6 °F - 34.2 °F 62% 29.98 in 10.0 mi WNW 3.5 mph - N/A   Overcast
7:35 PM 44.1 °F - 33.8 °F 67% 30.00 in 10.0 mi Calm Calm - N/A   Overcast
8:15 PM 43.2 °F - 33.8 °F 70% 30.00 in 10.0 mi Calm Calm - N/A   Overcast
8:35 PM 43.0 °F 40.3 °F 33.8 °F 70% 30.00 in 10.0 mi WNW 4.6 mph - N/A   Overcast
8:55 PM 42.1 °F 40.2 °F 33.8 °F 72% 30.00 in 10.0 mi WNW 3.5 mph - N/A   Scattered Clouds
9:15 PM - - - N/A% 30.00 in 10.0 mi Calm Calm - N/A   Clear
9:35 PM 40.5 °F - 33.8 °F 77% 30.01 in 10.0 mi Calm Calm - N/A   Clear
9:55 PM 39.9 °F - 33.4 °F 78% 30.01 in 10.0 mi Calm Calm - N/A   Clear
10:15 PM 39.7 °F - 33.8 °F 79% 30.01 in 10.0 mi Calm Calm - N/A   Clear
10:35 PM 39.9 °F - 33.8 °F 79% 30.02 in 10.0 mi Calm Calm - N/A   Clear
10:55 PM 40.5 °F - 34.0 °F 78% 30.02 in 10.0 mi Calm Calm - N/A   Clear
11:15 PM 40.1 °F - 34.2 °F 79% 30.02 in 10.0 mi Calm Calm - N/A   Clear
11:35 PM 39.6 °F - 34.5 °F 82% 30.02 in 10.0 mi Calm Calm - N/A   Clear
11:55 PM 38.8 °F - 34.3 °F 84% 30.03 in 10.0 mi Calm Calm - N/A   Clear